TimeCST,TemperatureF,Dew PointF,Humidity,Sea Level PressureIn,VisibilityMPH,Wind Direction,Wind SpeedMPH,Gust SpeedMPH,PrecipitationIn,Events,Conditions,WindDirDegrees,DateUTC
12:15 AM,30.6,24.6,79,30.37,10.0,South,5.8,-,N/A,,Clear,180,2013-11-14 06:15:00
12:35 AM,30.2,24.3,79,30.38,10.0,SSW,4.6,-,N/A,,Clear,200,2013-11-14 06:35:00
12:55 AM,29.8,23.7,78,30.37,10.0,South,4.6,-,N/A,,Clear,190,2013-11-14 06:55:00
1:15 AM,29.5,23.7,79,30.36,10.0,South,5.8,-,N/A,,Clear,180,2013-11-14 07:15:00
1:35 AM,29.3,23.7,80,30.36,10.0,South,5.8,-,N/A,,Clear,190,2013-11-14 07:35:00
1:55 AM,28.6,23.5,81,30.36,10.0,South,4.6,-,N/A,,Clear,180,2013-11-14 07:55:00
2:15 AM,28.8,23.7,81,30.36,10.0,South,3.5,-,N/A,,Clear,190,2013-11-14 08:15:00
2:35 AM,28.4,23.4,81,30.36,10.0,South,4.6,-,N/A,,Clear,180,2013-11-14 08:35:00
2:55 AM,28.4,23.9,83,30.35,10.0,South,5.8,-,N/A,,Clear,190,2013-11-14 08:55:00
3:15 AM,30.2,24.6,80,30.34,10.0,South,6.9,-,N/A,,Clear,190,2013-11-14 09:15:00
3:35 AM,30.7,24.4,77,30.34,10.0,South,8.1,-,N/A,,Clear,190,2013-11-14 09:35:00
3:55 AM,30.7,24.4,77,30.34,10.0,South,6.9,-,N/A,,Clear,190,2013-11-14 09:55:00
4:15 AM,30.2,23.9,77,30.34,10.0,South,5.8,-,N/A,,Clear,190,2013-11-14 10:15:00
4:35 AM,28.9,23.2,79,30.33,10.0,South,4.6,-,N/A,,Clear,180,2013-11-14 10:35:00
4:55 AM,26.8,22.8,85,30.33,10.0,Calm,Calm,-,N/A,,Clear,0,2013-11-14 10:55:00
5:15 AM,27.3,22.8,83,30.33,10.0,Calm,Calm,-,N/A,,Clear,0,2013-11-14 11:15:00
5:35 AM,26.8,22.3,83,30.33,10.0,South,4.6,-,N/A,,Clear,170,2013-11-14 11:35:00
5:55 AM,27.1,22.5,83,30.32,10.0,South,3.5,-,N/A,,Clear,170,2013-11-14 11:55:00
6:15 AM,27.3,22.3,81,30.32,10.0,SSE,4.6,-,N/A,,Clear,160,2013-11-14 12:15:00
6:35 AM,27.1,22.5,83,30.32,10.0,South,4.6,-,N/A,,Clear,170,2013-11-14 12:35:00
6:55 AM,27.3,22.8,83,30.32,10.0,South,5.8,-,N/A,,Clear,170,2013-11-14 12:55:00
7:15 AM,30.0,25.0,82,30.32,10.0,South,4.6,-,N/A,,Clear,170,2013-11-14 13:15:00
7:35 AM,32.4,26.2,78,30.32,10.0,South,5.8,-,N/A,,Clear,170,2013-11-14 13:35:00
7:55 AM,34.0,27.3,77,30.32,10.0,South,6.9,-,N/A,,Clear,180,2013-11-14 13:55:00
8:15 AM,36.5,27.5,70,30.32,10.0,South,9.2,-,N/A,,Clear,190,2013-11-14 14:15:00
8:35 AM,39.2,28.2,65,30.32,10.0,SSW,10.4,16.1,N/A,,Clear,210,2013-11-14 14:35:00
8:55 AM,41.0,27.1,58,30.31,10.0,SW,12.7,21.9,N/A,,Clear,220,2013-11-14 14:55:00
9:15 AM,42.1,26.8,55,30.31,10.0,SW,15.0,-,N/A,,Clear,220,2013-11-14 15:15:00
9:35 AM,43.9,27.1,52,30.31,10.0,SSW,13.8,-,N/A,,Clear,210,2013-11-14 15:35:00
9:55 AM,45.5,25.7,46,30.30,10.0,SSW,12.7,17.3,N/A,,Clear,210,2013-11-14 15:55:00
10:15 AM,46.9,24.4,41,30.29,10.0,SSW,16.1,20.7,N/A,,Clear,210,2013-11-14 16:15:00
10:35 AM,48.2,23.0,37,30.29,10.0,SW,13.8,-,N/A,,Clear,220,2013-11-14 16:35:00
10:55 AM,49.5,22.6,35,30.28,10.0,SSW,13.8,21.9,N/A,,Clear,210,2013-11-14 16:55:00
11:15 AM,50.5,23.5,35,30.27,10.0,SSW,13.8,-,N/A,,Clear,210,2013-11-14 17:15:00
11:35 AM,51.8,23.7,33,30.25,10.0,SW,15.0,20.7,N/A,,Clear,220,2013-11-14 17:35:00
11:55 AM,52.3,24.1,33,30.24,10.0,SSW,13.8,20.7,N/A,,Clear,210,2013-11-14 17:55:00
12:15 PM,53.1,24.3,33,30.22,10.0,SW,13.8,18.4,N/A,,Clear,220,2013-11-14 18:15:00
12:35 PM,53.6,24.1,32,30.21,10.0,SSW,13.8,23.0,N/A,,Clear,210,2013-11-14 18:35:00
12:55 PM,54.7,23.7,30,30.21,10.0,SW,17.3,-,N/A,,Clear,220,2013-11-14 18:55:00
1:15 PM,55.8,24.3,30,30.19,10.0,SW,16.1,20.7,N/A,,Clear,220,2013-11-14 19:15:00
1:35 PM,55.9,24.1,29,30.18,10.0,South,12.7,-,N/A,,Clear,190,2013-11-14 19:35:00
1:55 PM,56.3,22.6,27,30.17,10.0,SSW,15.0,21.9,N/A,,Clear,200,2013-11-14 19:55:00
2:15 PM,56.7,23.5,28,30.16,10.0,SSW,16.1,-,N/A,,Clear,200,2013-11-14 20:15:00
2:35 PM,55.8,24.4,30,30.16,10.0,South,16.1,20.7,N/A,,Clear,190,2013-11-14 20:35:00
2:55 PM,55.8,24.8,30,30.16,10.0,South,11.5,-,N/A,,Clear,190,2013-11-14 20:55:00
3:15 PM,54.7,23.2,29,30.15,10.0,SSW,11.5,19.6,N/A,,Clear,200,2013-11-14 21:15:00
3:35 PM,54.3,24.3,31,30.14,10.0,South,15.0,21.9,N/A,,Clear,190,2013-11-14 21:35:00
3:55 PM,53.1,23.7,32,30.14,10.0,South,12.7,19.6,N/A,,Clear,190,2013-11-14 21:55:00
4:15 PM,52.3,24.3,34,30.14,10.0,South,10.4,-,N/A,,Clear,180,2013-11-14 22:15:00
4:35 PM,50.5,24.6,36,30.14,10.0,South,9.2,-,N/A,,Clear,180,2013-11-14 22:35:00
4:55 PM,49.1,24.8,39,30.15,10.0,South,8.1,-,N/A,,Clear,190,2013-11-14 22:55:00
5:15 PM,47.1,26.1,44,30.14,10.0,South,8.1,-,N/A,,Clear,190,2013-11-14 23:15:00
5:35 PM,46.8,26.1,44,30.14,10.0,South,6.9,-,N/A,,Clear,190,2013-11-14 23:35:00
5:55 PM,45.9,25.7,45,30.14,10.0,South,8.1,-,N/A,,Clear,190,2013-11-14 23:55:00
6:15 PM,47.3,25.3,42,30.15,10.0,SSW,9.2,-,N/A,,Clear,200,2013-11-15 00:15:00
6:35 PM,46.0,25.9,45,30.14,10.0,SSW,8.1,-,N/A,,Clear,200,2013-11-15 00:35:00
6:55 PM,45.1,25.7,47,30.14,10.0,South,8.1,-,N/A,,Clear,190,2013-11-15 00:55:00
7:15 PM,43.9,26.2,50,30.15,10.0,SSW,8.1,-,N/A,,Clear,200,2013-11-15 01:15:00
7:35 PM,44.1,25.7,49,30.15,10.0,South,9.2,-,N/A,,Clear,190,2013-11-15 01:35:00
7:55 PM,43.9,26.1,50,30.15,10.0,SSW,8.1,-,N/A,,Clear,200,2013-11-15 01:55:00
8:15 PM,43.9,25.7,49,30.15,10.0,SSW,8.1,-,N/A,,Clear,200,2013-11-15 02:15:00
8:35 PM,43.2,26.1,51,30.15,10.0,South,8.1,-,N/A,,Clear,190,2013-11-15 02:35:00
8:55 PM,43.2,26.4,52,30.14,10.0,South,8.1,-,N/A,,Clear,180,2013-11-15 02:55:00
9:15 PM,41.7,26.6,55,30.14,10.0,South,8.1,-,N/A,,Clear,170,2013-11-15 03:15:00
9:35 PM,41.5,26.6,55,30.14,10.0,South,8.1,-,N/A,,Clear,180,2013-11-15 03:35:00
9:55 PM,41.5,27.1,57,30.14,10.0,South,8.1,-,N/A,,Clear,180,2013-11-15 03:55:00
10:15 PM,40.3,26.8,59,30.14,10.0,South,5.8,-,N/A,,Clear,180,2013-11-15 04:15:00
10:35 PM,39.0,26.4,61,30.14,10.0,South,3.5,-,N/A,,Clear,170,2013-11-15 04:35:00
10:55 PM,39.2,26.8,61,30.13,10.0,South,4.6,-,N/A,,Clear,170,2013-11-15 04:55:00
11:15 PM,38.5,27.0,63,30.13,10.0,South,3.5,-,N/A,,Clear,190,2013-11-15 05:15:00
11:35 PM,39.4,27.7,63,30.13,10.0,South,6.9,-,N/A,,Clear,180,2013-11-15 05:35:00
11:55 PM,41.2,28.0,60,30.13,10.0,South,5.8,-,N/A,,Clear,190,2013-11-15 05:55:00